SBRFSBKG

Guest
Details From SBRF - Recife Intl
To SBKG - PRESIDENTE JOAO SUASSUNA
Flight Number -
Tags generated
Created
Modified
Stats Distance 78 nm / 144 km
Max Altitude 0 ft / 0 m
Waypoints 3
Social Downloads 0
Likes 0
Share VATSIM

Download

Looking for another format? Having issues loading an existing format? Contact us
Advertisement - Login to hide

Notes

Basic altitude profile: - Ascent Rate: 2500ft/min - Ascent Speed: 250kts - Cruise Altitude: 35000ft - Cruise Speed: 420kts - Descent Rate: 1500ft/min - Descent Speed: 250kts Options: - Use NATs: yes - Use PACOTS: yes - Use low airways: yes - Use high airways: yes

Route

SBRF CPG SBKG

ID Type Via Altitude Latitude Longitude Leg Dist Tot Dist Heading (true) Name
O SBRF APT - 0 ft / 0 m -8.12790˚ -34.92298˚ - 0 nm - Recife Intl
CPG NDB - 0 ft / 0 m -7.26601˚ -35.89267˚ 77 nm 77 nm 312° / 312° CAMPINA GRANDE NDB
O SBKG APT - 0 ft / 0 m -7.26992˚ -35.89636˚ 0 nm 77 nm 223° / 223° PRESIDENTE JOAO SUASSUNA

Altitude Profile

Advertisement - Login to hide

SBRF

Details ICAO SBRF (REC)
Name Recife Intl
Region Brazil
Timezone America/Recife (UTC-3.0)
Stats Elevation 33 ft / 10 m (AMSL)
Location -8.127896° -34.922981°
Runways 2
Magnetic Variation 22.075° W

METAR

SBRF 211700Z 10010KT 9999 SCT023 SCT060 29/23 Q1011

Decode

TAF

TAF SBRF 211000Z 2112/2212 12011KT 9000 SCT023 TX28/2115Z TN24/2206Z BECMG 2120/2121 13006KT RMK PEI

Decode

Departure Runways

ID Width Length Bearing (true) Bearing (mag) Surface Threshold Offset Overrun Length
01 98 ft / 30 m 4,979 ft / 1,518 m 304.20° 326.27° Asphalt 300 ft / 91 m 0 ft / 0 m
18 148 ft / 45 m 9,915 ft / 3,022 m 161.91° 183.98° Asphalt 1,225 ft / 373 m 0 ft / 0 m
19 98 ft / 30 m 4,979 ft / 1,518 m 124.20° 146.27° Asphalt 300 ft / 91 m 0 ft / 0 m
36 148 ft / 45 m 9,915 ft / 3,022 m 341.91° 3.98° Asphalt 0 ft / 0 m 350 ft / 107 m

SBKG

Details ICAO SBKG (CPV)
Name PRESIDENTE JOAO SUASSUNA
Region Brazil
Timezone America/Fortaleza (UTC-3.0)
Stats Elevation 1,646 ft / 502 m (AMSL)
Location -7.269916° -35.896364°
Runways 1
Magnetic Variation 21.910° W

METAR

SBKG 211700Z 12005KT 9999 FEW023 BKN030 28/22 Q1013

Decode

TAF

TAF SBKG 211000Z 2112/2124 11009KT 9999 BKN023 TX27/2117Z TN23/2122Z BECMG 2114/2116 SCT025 RMK PEI

Decode

Destination Runways

ID Width Length Bearing (true) Bearing (mag) Surface Threshold Offset Overrun Length
15 138 ft / 42 m 5,262 ft / 1,604 m 125.55° 147.46° Asphalt 0 ft / 0 m 170 ft / 52 m
33 138 ft / 42 m 5,262 ft / 1,604 m 305.54° 327.45° Asphalt 0 ft / 0 m 200 ft / 61 m